Wetbulb
50.35 50.31 50.37 50.24 50.35 50.98 51.35 51.35 51.04 51.39 51.22 51.11 50.49 50.53 50.18 50.86 50.68 50.27 48.42 52.23 48.25 42.66 44.48 45.65 45.82 42.75 42.64 42.68 38.88 43.84 44.21 44.99 44.29 42.40 43.17 44.16 44.76 47.32 47.52 50.27 50.44 48.60 47.61 47.30 49.18 47.51 46.26 57.60 57.28 54.77 61.00 62.73 62.05 62.39
50.23 50.73 51.00 50.86 51.21 51.55 51.61 51.80 51.47 51.08 50.75 50.57 50.12 50.38 49.94 49.74 49.94 49.97 47.13 51.31 53.05 45.36 44.39 48.37 48.84 49.53 47.90 47.20 43.06 44.99 42.78 44.03 46.16 44.04 45.54 47.39 45.70 48.41 48.83 45.04 53.27 49.49 52.42 50.49 50.82 51.01 58.13 59.46 59.59 63.56 64.03 66.35 66.14 67.05
50.63 50.99 51.01 51.35 51.52 51.59 51.69 51.47 51.31 50.92 50.98 50.64 50.13 50.13 49.10 49.40 49.81 50.20 48.58 51.92 49.37 45.11 44.59 45.50 44.94 49.20 50.73 49.78 50.54 42.78 44.95 46.73 45.14 48.30 43.01 42.91 44.63 48.81 45.86 48.48 50.75 53.43 56.32 53.87 54.04 56.67 56.83 58.08 60.05 61.04 64.72 66.83 67.23 67.98
50.81 51.13 51.31 51.57 51.76 51.76 51.88 51.79 51.37 50.90 50.83 50.62 50.09 50.00 49.05 49.12 49.19 49.80 49.53 51.29 50.14 43.99 38.95 42.70 49.27 47.35 50.94 50.94 50.23 49.60 48.13 48.53 48.53 50.07 44.87 40.24 41.92 49.55 47.26 47.91 50.59 54.27 56.36 54.74 54.81 56.65 57.92 58.07 58.94 60.19 62.12 66.59 67.68 68.27
51.16 51.25 51.27 51.66 51.82 51.90 52.08 52.08 51.83 51.44 51.18 51.06 50.51 49.49 49.57 48.67 48.58 49.39 49.52 50.60 51.32 44.34 38.73 41.48 46.73 48.83 50.10 50.52 49.14 49.78 48.50 46.77 44.58 43.63 40.61 40.21 45.90 46.27 48.06 47.52 49.45 54.99 54.96 51.68 52.48 58.45 58.43 59.89 60.95 61.22 63.01 65.90 67.66 67.33
51.11 51.27 51.41 51.55 51.74 52.00 51.99 51.87 52.18 51.66 51.10 51.20 51.55 50.25 49.34 49.24 48.78 48.11 41.76 48.93 50.04 48.27 41.79 37.25 46.74 46.77 48.80 49.71 48.71 48.09 48.40 47.31 46.31 44.28 43.40 44.85 48.16 46.20 43.46 44.73 52.51 55.41 56.82 56.22 56.94 61.25 63.46 64.73 65.19 62.88 64.40 67.32 68.06 68.12
51.04 51.19 51.31 51.45 51.59 51.75 51.68 51.44 51.61 52.03 51.72 51.35 51.46 51.11 50.08 49.55 49.56 44.67 44.11 48.25 50.88 50.76 41.06 37.00 40.73 48.88 48.80 48.56 47.41 46.54 47.39 44.89 43.59 43.22 42.08 43.05 43.88 47.79 45.83 43.66 51.12 53.41 56.30 56.07 58.73 60.82 61.05 64.31 64.14 67.14 67.81 67.98 65.77 68.01
50.90 51.00 51.08 51.20 51.36 51.46 51.25 51.09 51.28 51.46 51.82 51.73 51.47 51.40 50.58 49.94 49.12 46.49 49.77 48.64 50.57 46.99 43.62 35.69 38.72 44.67 49.61 43.86 42.66 47.80 43.48 44.45 43.63 41.44 43.59 43.31 46.02 46.16 43.33 48.83 51.73 53.68 54.89 55.24 58.88 61.95 62.24 64.38 66.51 67.28 67.97 67.09 65.09 64.31
50.80 50.89 51.03 51.13 51.05 50.99 50.96 51.09 51.35 51.46 51.52 51.39 51.46 51.07 50.89 47.77 44.14 46.41 50.66 50.83 49.08 45.52 38.60 38.14 36.25 36.57 44.91 44.61 46.38 44.83 43.77 39.08 46.91 41.25 43.69 46.09 44.33 41.52 47.06 49.90 52.16 54.32 55.35 56.88 58.68 60.89 63.33 63.33 65.80 66.57 65.45 64.08 63.67 63.51
50.32 50.34 50.60 50.60 50.72 50.69 50.76 51.10 51.29 50.97 50.62 50.56 49.11 45.88 43.26 46.73 50.15 49.35 45.36 42.47 42.02 41.41 39.14 36.39 42.05 38.56 44.20 43.45 42.67 45.12 45.27 42.46 37.88 42.10 46.29 42.20 43.45 49.80 51.37 52.72 54.08 55.11 57.47 57.58 56.42 57.18 62.42 63.33 65.17 65.19 63.57 64.05 63.27 63.28
49.99 50.20 50.24 50.46 50.47 50.55 50.74 50.92 50.90 50.70 49.88 49.17 44.85 43.52 48.19 49.84 47.20 43.74 39.45 37.61 36.92 35.45 37.59 38.02 38.50 37.90 45.70 38.15 41.61 45.55 37.89 41.01 38.29 43.22 43.16 43.39 43.69 48.66 52.48 53.83 55.68 57.32 56.91 57.75 57.98 56.60 63.61 63.95 63.21 62.85 62.79 62.99 62.90 62.81
50.30 50.34 50.36 50.49 50.36 50.38 50.59 50.94 50.44 50.92 50.91 48.72 47.92 49.01 48.32 44.72 41.75 37.37 35.69 37.43 36.75 36.71 40.59 39.51 40.18 39.32 42.06 47.03 43.03 42.03 39.48 39.60 36.02 45.64 42.00 39.08 47.14 52.10 53.18 54.06 55.97 54.75 56.57 57.17 58.34 58.48 61.32 61.68 62.61 62.51 62.24 63.00 63.30 63.79
50.33 50.31 50.27 50.35 50.47 50.55 50.76 50.51 50.64 50.90 50.12 49.55 46.80 44.60 42.69 41.54 34.26 32.31 31.95 32.85 32.67 36.18 39.86 41.99 41.27 44.21 45.63 46.74 42.32 41.20 36.35 36.80 42.38 38.45 37.35 41.53 46.13 47.22 52.30 53.14 54.20 56.12 57.48 57.69 58.86 60.22 60.74 61.02 62.38 62.38 62.71 63.46 63.66 63.38
50.04 50.16 50.12 50.19 50.31 50.62 50.72 50.75 51.26 51.35 49.93 48.08 46.35 40.96 43.12 40.05 39.10 37.15 38.45 40.91 42.66 40.77 40.72 42.47 42.00 43.18 46.01 40.59 38.55 33.94 36.61 39.28 33.93 34.31 34.79 40.53 46.49 51.11 53.22 54.91 55.28 55.15 55.53 55.74 56.59 58.87 60.04 60.87 61.03 61.72 61.91 62.09 61.66 61.20
50.23 50.37 50.24 51.09 50.95 50.83 50.74 51.13 51.02 55.00 51.54 48.10 48.29 40.03 43.55 45.64 46.40 46.53 47.90 47.84 48.53 50.17 48.61 46.01 45.24 44.11 41.79 38.63 40.69 39.91 36.94 34.64 34.64 34.09 42.47 48.44 49.23 51.48 52.47 53.28 53.48 54.23 54.33 54.24 55.42 55.79 56.68 57.84 58.83 59.61 60.71 61.39 61.34 61.28
50.62 50.50 53.87 51.32 50.93 50.66 50.50 53.48 55.72 56.59 54.05 48.22 47.65 42.46 45.20 44.00 44.36 46.48 48.58 48.96 52.65 51.98 51.86 48.89 46.48 43.10 41.26 40.84 38.23 36.46 35.44 33.94 40.32 45.57 49.69 51.36 48.83 50.44 51.76 52.81 53.41 53.85 55.05 54.81 55.51 56.34 56.90 57.53 57.75 58.39 59.17 59.41 59.99 60.84
49.66 56.56 50.98 50.62 50.35 50.23 51.48 56.01 56.54 51.76 51.12 49.53 49.50 50.74 46.55 45.58 45.63 47.84 49.87 51.04 54.53 52.11 47.21 47.55 42.85 40.40 44.42 38.47 36.82 41.37 40.86 43.39 46.80 50.08 53.16 53.92 52.84 52.16 52.64 53.23 54.48 54.38 54.66 54.82 55.84 57.54 58.22 58.73 58.89 58.60 58.17 59.40 59.34 60.60
56.61 57.55 51.66 50.32 51.32 55.28 60.43 57.26 52.80 51.60 48.69 51.62 49.59 50.76 52.60 52.81 51.59 51.92 50.86 53.06 53.39 51.12 50.53 46.10 47.35 42.12 40.97 39.43 41.48 45.35 48.06 50.40 52.74 52.94 53.42 54.93 55.78 55.18 55.26 54.79 54.79 55.33 55.07 55.63 55.04 56.15 56.29 56.31 56.16 56.83 58.88 59.45 59.45 60.09
53.72 52.90 50.80 50.60 51.88 54.12 54.92 55.59 55.20 50.00 50.25 52.77 53.80 54.61 53.92 52.77 54.34 55.59 54.47 54.33 54.52 54.16 51.14 47.36 43.26 42.19 43.33 46.45 46.53 50.02 51.59 52.32 52.37 53.86 53.89 54.97 56.18 57.14 57.24 57.75 58.06 58.07 57.65 57.66 57.36 56.05 56.85 58.40 56.49 56.14 55.93 56.89 57.47 58.09
50.24 50.46 50.96 51.68 51.97 56.98 52.70 55.04 57.86 52.92 50.24 52.13 53.62 52.59 52.76 52.03 53.89 54.31 54.22 54.06 52.91 50.70 46.69 44.84 45.57 47.75 49.45 52.14 53.51 53.16 56.60 56.67 55.09 54.05 53.19 56.26 57.66 58.27 57.83 58.05 58.14 59.01 57.61 58.74 57.79 51.82 56.79 57.22 56.67 56.44 56.62 56.20 55.67 56.03
51.57 56.95 54.20 55.38 60.35 59.24 56.32 54.84 54.30 54.39 53.84 51.62 53.23 52.92 52.12 54.04 52.96 52.66 52.36 54.32 50.65 50.47 49.62 52.41 53.46 54.22 57.81 58.19 58.85 59.73 58.66 58.50 55.79 54.56 56.67 55.82 58.13 58.67 56.66 57.85 58.90 57.52 55.01 54.20 52.83 54.50 53.50 55.58 56.27 57.37 57.11 56.71 56.95 55.43
59.09 52.08 58.47 58.80 57.85 57.05 57.02 58.39 54.54 56.08 54.69 54.09 53.04 53.23 50.83 50.46 50.62 51.67 54.51 51.68 50.95 52.37 53.54 53.38 55.44 55.04 56.57 56.09 56.92 58.70 58.88 58.37 59.84 55.66 52.17 52.82 54.89 54.89 55.29 55.61 55.24 55.02 55.99 54.96 56.10 55.52 55.71 57.09 57.28 57.46 57.31 57.41 54.67 57.77
53.63 55.77 59.45 58.37 54.62 50.85 50.37 58.87 53.30 53.74 49.44 50.78 52.49 49.71 49.58 49.46 51.59 55.08 50.37 51.82 52.34 55.25 54.11 56.68 57.90 58.20 56.39 56.65 56.87 56.83 57.37 56.55 54.59 54.57 54.72 55.11 55.98 56.24 56.05 55.52 56.26 55.09 54.38 55.94 56.59 56.64 56.23 49.61 55.80 55.99 57.20 57.06 56.75 56.48
49.76 56.63 55.04 54.72 55.20 48.60 56.61 53.18 55.81 53.17 52.71 50.02 48.64 47.63 49.43 51.57 53.20 49.93 46.85 49.84 52.46 54.06 53.80 56.51 53.88 52.47 53.53 56.24 53.13 53.80 54.60 55.52 54.84 54.81 55.06 55.07 53.59 54.47 54.68 54.00 55.14 55.74 56.11 56.60 56.26 54.89 55.74 55.74 51.84 55.67 55.73 56.13 55.94 56.59
49.34 50.22 52.41 43.25 54.79 51.99 49.83 50.88 50.72 49.68 48.00 49.19 47.36 47.22 49.03 52.84 46.91 46.84 45.11 47.79 50.70 50.95 52.21 53.14 52.61 52.01 50.22 50.39 51.19 51.89 54.86 53.93 53.31 52.56 53.72 54.30 53.91 52.76 53.29 53.23 53.59 53.46 54.49 53.43 52.48 53.11 53.97 55.51 55.17 54.73 55.47 54.15 54.41 55.13
42.79 52.50 48.14 51.69 51.83 50.53 50.58 48.31 49.24 49.22 49.68 47.92 49.00 52.06 51.72 49.50 45.52 43.45 44.75 46.15 48.22 49.61 50.64 50.48 50.35 50.20 50.07 50.61 49.67 49.90 51.09 53.79 53.53 52.09 52.19 52.35 51.51 50.95 50.75 50.30 49.83 49.65 52.22 52.61 51.78 51.79 52.21 53.16 53.09 53.94 53.69 52.72 48.24 53.92
45.53 50.16 54.02 57.93 55.19 53.83 52.48 53.44 52.51 50.14 47.73 45.54 47.95 48.38 48.88 42.80 41.00 41.30 45.81 45.65 45.72 48.76 52.34 51.87 51.05 49.83 49.59 50.19 51.16 51.34 51.69 52.19 52.45 52.23 54.29 53.35 52.00 51.12 50.12 48.51 47.16 46.92 49.96 50.06 49.32 49.29 48.95 49.24 50.58 51.51 52.04 53.34 53.68 51.02
54.36 54.26 50.47 52.87 53.06 53.63 50.20 49.76 48.38 46.91 46.79 49.27 48.01 40.24 35.53 36.06 36.67 42.21 45.30 48.10 49.79 51.28 50.93 51.64 51.31 50.66 49.81 50.17 50.93 50.50 49.90 50.16 50.62 51.03 51.29 52.02 51.48 50.57 49.96 49.56 49.01 41.01 47.91 48.08 47.27 47.72 46.88 45.94 46.83 48.25 49.30 50.11 51.05 51.99
53.43 55.12 54.30 50.93 52.00 52.03 51.29 49.67 47.88 48.66 49.40 48.03 41.85 39.09 38.45 41.86 44.99 45.77 47.34 49.61 50.03 47.90 47.58 48.30 48.68 49.23 49.21 49.36 49.34 49.02 48.75 47.64 46.00 44.42 44.54 44.52 45.64 46.61 48.13 47.88 47.59 47.53 47.31 47.16 39.04 42.47 44.87 44.71 45.69 46.15 47.21 48.41 49.77 50.55
52.98 56.04 52.08 51.33 49.73 48.92 51.62 52.70 49.73 50.98 50.68 49.32 47.47 45.54 45.00 47.60 50.12 51.10 50.14 49.72 48.11 48.73 49.52 49.90 49.46 47.94 46.37 45.83 45.60 46.14 47.30 47.28 46.57 44.78 42.79 43.08 44.34 46.38 46.48 46.16 46.04 46.26 46.40 46.23 46.00 46.16 40.93 44.31 44.61 46.75 46.10 46.52 47.21 46.53
56.91 54.73 52.13 52.11 51.32 53.96 53.17 53.06 51.82 51.72 51.13 50.53 49.95 47.40 47.19 47.84 49.40 51.91 51.51 51.22 50.99 50.51 48.85 48.12 47.71 46.97 45.44 44.72 44.23 43.58 43.12 46.14 45.57 45.10 44.02 44.80 45.04 44.90 44.83 45.16 45.64 45.76 45.77 45.32 45.13 44.77 44.23 43.75 43.86 43.49 43.32 43.15 43.38 43.05
54.03 52.41 51.70 49.02 51.68 55.27 53.34 51.95 50.04 49.00 49.61 48.32 48.54 48.24 47.29 45.66 45.15 47.76 51.32 50.93 49.60 48.27 45.09 47.22 45.97 44.89 46.16 46.24 46.23 46.06 39.35 45.45 44.44 44.11 43.61 42.97 42.71 42.86 43.51 44.34 44.26 44.24 44.03 43.82 44.03 43.70 43.04 42.30 42.11 41.85 41.72 41.59 41.77 41.75
52.54 51.16 51.70 51.60 51.82 50.03 53.75 51.66 50.87 49.57 49.88 50.20 49.81 50.68 49.50 48.46 44.53 48.90 52.15 51.90 49.51 48.28 47.79 47.55 46.89 46.50 46.50 45.93 45.65 45.52 43.22 46.15 39.80 35.16 35.50 34.64 33.64 36.02 41.20 42.54 42.50 42.66 42.04 42.35 42.43 41.95 41.77 41.17 41.05 40.53 40.32 39.79 39.96 40.31
MSLP
1025.37 1024.75 1024.19 1023.82 1023.16 1022.47 1021.89 1021.38 1020.71 1019.93 1019.27 1018.61 1018.21 1017.99 1017.85 1017.69 1017.75 1017.91 1016.77 1016.70 1017.23 1015.71 1013.90 1013.27 1012.83 1012.17 1011.71 1011.17 1010.03 1008.64 1008.32 1007.17 1006.67 1005.47 1004.15 1002.12 999.97 998.21 997.44 995.84 995.05 995.02 995.11 994.47 994.59 993.46 992.15 991.51 990.91 990.55 990.50 990.41 990.51 990.52
1024.82 1024.31 1023.87 1023.41 1022.71 1022.15 1021.57 1020.91 1020.25 1019.56 1018.96 1018.37 1018.06 1017.63 1017.24 1017.04 1017.25 1017.53 1016.96 1016.15 1016.55 1016.68 1014.25 1013.10 1012.44 1011.80 1011.32 1011.19 1011.15 1010.34 1009.57 1009.15 1008.32 1007.90 1006.99 1004.85 1001.57 999.13 997.51 995.77 995.26 994.32 993.47 993.91 993.77 993.06 993.02 992.40 991.88 991.11 991.13 991.44 991.35 991.50
1024.42 1023.83 1023.25 1022.83 1022.23 1021.68 1021.09 1020.59 1020.01 1019.38 1018.65 1018.20 1017.85 1017.40 1017.09 1016.82 1016.49 1016.69 1016.34 1016.31 1016.70 1015.79 1013.69 1011.94 1010.87 1010.62 1010.86 1010.89 1010.79 1010.49 1010.10 1009.31 1009.81 1010.14 1010.16 1008.15 1004.82 1001.88 1000.11 996.65 995.16 994.75 994.19 993.61 993.78 993.22 993.00 992.89 992.29 991.85 991.59 992.32 992.36 992.07
1023.87 1023.35 1022.76 1022.27 1021.74 1021.17 1020.59 1020.15 1019.79 1019.21 1018.63 1017.94 1017.43 1017.15 1016.95 1016.62 1016.37 1016.39 1016.02 1015.87 1016.14 1015.65 1013.51 1010.29 1008.81 1008.91 1009.05 1009.22 1009.68 1010.09 1010.01 1010.02 1010.28 1010.68 1010.47 1009.56 1007.03 1004.56 1002.03 1000.40 997.99 994.65 994.37 993.83 993.46 993.73 993.03 992.56 992.50 992.30 991.75 992.25 992.94 992.67
1023.41 1022.93 1022.28 1021.71 1021.24 1020.63 1020.01 1019.59 1019.23 1018.76 1018.16 1017.55 1017.15 1016.94 1016.74 1016.61 1016.46 1016.11 1015.43 1015.19 1015.17 1015.45 1013.06 1010.76 1010.05 1009.11 1008.60 1008.47 1008.94 1009.18 1009.51 1009.91 1010.02 1010.86 1010.95 1009.48 1007.52 1005.83 1003.40 1002.03 999.39 997.16 995.54 995.12 994.28 993.83 993.27 992.54 992.18 991.79 991.89 992.58 993.07 992.99
1022.98 1022.46 1021.79 1021.19 1020.70 1020.13 1019.50 1018.88 1018.43 1017.82 1017.34 1017.04 1016.79 1016.60 1016.54 1016.55 1016.50 1015.35 1014.68 1013.85 1013.92 1014.29 1014.39 1012.10 1009.12 1008.39 1008.12 1008.11 1008.14 1008.79 1008.97 1009.50 1009.47 1009.06 1009.08 1009.00 1008.37 1007.23 1004.39 1001.13 998.97 997.53 996.68 997.75 996.48 995.09 994.45 993.67 992.24 991.85 992.03 992.96 993.28 993.67
1022.27 1021.85 1021.32 1020.65 1020.08 1019.48 1018.83 1018.22 1017.85 1017.07 1016.63 1016.39 1016.22 1015.98 1016.06 1016.17 1015.80 1014.82 1014.78 1014.92 1014.51 1014.73 1015.05 1013.38 1009.58 1008.26 1008.66 1008.37 1008.50 1008.65 1008.82 1009.45 1010.30 1009.81 1008.91 1008.68 1008.10 1007.53 1005.05 1001.76 999.83 998.57 997.92 998.55 998.28 996.49 995.53 994.43 992.56 992.47 992.84 993.47 994.03 994.49
1021.53 1021.07 1020.57 1019.93 1019.40 1018.88 1018.20 1017.48 1017.07 1016.35 1015.76 1015.61 1015.41 1015.31 1015.44 1015.65 1015.55 1014.35 1013.19 1014.02 1014.22 1014.81 1014.95 1013.58 1010.24 1008.30 1008.42 1008.73 1008.96 1009.01 1009.40 1010.42 1010.90 1010.29 1009.40 1008.16 1007.05 1006.63 1003.73 1000.80 1000.12 999.61 999.15 998.58 998.01 996.79 995.85 994.89 993.49 993.42 993.65 994.01 994.53 995.17
1020.78 1020.36 1019.75 1019.11 1018.73 1018.17 1017.57 1016.75 1016.28 1015.60 1015.07 1014.73 1014.59 1014.65 1014.88 1015.16 1014.33 1013.31 1013.53 1013.74 1014.20 1014.73 1014.06 1012.99 1011.21 1009.61 1009.79 1008.88 1008.83 1008.93 1009.72 1010.17 1009.46 1009.05 1007.60 1007.11 1005.41 1004.12 1001.76 1001.07 1000.07 999.38 998.76 998.88 998.48 997.52 995.08 994.61 993.70 993.91 994.25 994.98 995.35 996.11
1019.93 1019.59 1018.98 1018.37 1017.93 1017.42 1016.97 1016.11 1015.63 1014.97 1014.42 1014.17 1014.25 1014.13 1013.50 1013.15 1013.48 1013.73 1014.15 1014.37 1014.42 1014.46 1014.14 1012.65 1010.93 1009.75 1009.44 1009.11 1008.86 1008.74 1009.14 1008.64 1008.05 1007.28 1006.84 1005.64 1003.42 1001.62 1000.83 1000.26 999.74 999.30 998.96 999.12 998.42 997.31 995.11 993.79 994.12 994.47 995.13 995.45 996.14 996.81
1019.16 1018.81 1018.21 1017.64 1017.10 1016.70 1016.45 1015.61 1015.01 1014.57 1014.31 1014.09 1014.00 1013.59 1013.39 1013.45 1013.57 1013.46 1013.23 1013.35 1013.57 1013.28 1012.72 1011.63 1011.07 1010.07 1008.88 1009.33 1008.58 1008.60 1008.79 1008.21 1007.07 1005.46 1004.98 1003.27 1001.27 1000.08 999.95 999.39 999.35 999.38 999.58 999.11 998.58 997.83 995.14 994.75 995.00 995.04 995.52 996.26 996.98 997.70
1018.40 1018.06 1017.51 1016.95 1016.45 1015.98 1015.56 1015.28 1014.62 1014.25 1013.52 1013.85 1013.88 1013.71 1013.42 1013.21 1012.90 1012.84 1012.37 1011.96 1011.76 1011.07 1010.34 1009.89 1009.49 1009.78 1009.15 1008.66 1008.23 1008.73 1008.17 1007.99 1006.32 1005.41 1004.51 1002.50 1000.65 1000.23 1000.05 999.87 999.50 999.63 999.51 998.94 998.17 997.41 995.87 995.64 995.49 996.08 996.84 997.69 998.50 999.09
1017.68 1017.32 1016.79 1016.23 1015.84 1015.23 1014.69 1014.59 1014.13 1013.69 1013.95 1013.73 1013.49 1012.70 1012.45 1012.63 1012.37 1011.88 1011.12 1010.60 1010.27 1009.81 1009.18 1008.68 1008.33 1008.06 1007.89 1007.67 1007.91 1007.76 1007.69 1007.22 1006.63 1005.42 1004.45 1003.12 1001.73 1001.16 1000.12 999.90 999.81 999.90 999.59 998.69 997.63 997.31 997.09 997.38 997.96 998.54 998.93 999.40 999.70 999.87
1017.05 1016.64 1016.07 1015.53 1015.15 1014.60 1014.07 1013.81 1013.54 1013.14 1013.19 1011.90 1010.89 1010.90 1010.67 1010.91 1010.81 1010.39 1009.54 1008.55 1008.03 1007.71 1007.17 1006.88 1007.00 1006.85 1006.73 1007.37 1007.75 1007.49 1007.44 1006.99 1006.45 1005.67 1004.71 1003.43 1001.80 1000.29 999.99 1000.14 999.74 998.84 998.89 998.93 998.66 999.08 999.21 999.50 999.75 1000.27 1000.71 1000.58 1000.56 1000.87
1016.47 1015.86 1015.33 1014.74 1014.45 1013.90 1013.33 1012.98 1012.73 1012.25 1011.43 1010.07 1010.09 1010.35 1010.18 1010.21 1009.41 1008.77 1007.91 1006.53 1005.70 1005.29 1004.80 1004.90 1005.22 1005.93 1006.30 1006.81 1006.80 1006.63 1006.71 1006.60 1006.51 1005.73 1004.10 1003.22 1001.99 1001.39 1001.01 1001.29 999.69 999.73 1000.88 1000.78 1000.93 1001.16 1001.57 1001.74 1001.50 1001.27 1001.47 1001.43 1001.71 1001.85
1015.90 1014.94 1014.62 1014.31 1013.95 1013.29 1012.76 1011.98 1011.79 1010.53 1009.59 1010.32 1010.48 1010.61 1010.30 1009.64 1008.67 1007.63 1006.58 1005.30 1004.00 1003.01 1002.88 1003.78 1003.93 1004.70 1005.62 1006.22 1006.46 1006.80 1006.67 1006.55 1005.88 1004.81 1003.92 1003.53 1003.39 1003.14 1002.69 1002.61 1002.37 1002.16 1002.11 1002.21 1002.50 1002.64 1002.13 1001.98 1002.15 1002.41 1002.55 1002.65 1002.79 1002.85
1015.73 1014.36 1014.46 1014.11 1013.57 1012.64 1011.91 1011.47 1010.05 1009.90 1009.78 1009.57 1009.23 1009.36 1009.42 1009.22 1008.66 1007.41 1006.22 1004.89 1003.26 1002.09 1002.25 1002.63 1004.21 1005.31 1006.28 1006.87 1007.13 1006.91 1006.45 1005.88 1005.68 1005.35 1004.64 1003.92 1003.71 1004.11 1003.89 1003.80 1003.85 1003.76 1003.81 1003.34 1003.52 1003.09 1002.87 1002.70 1002.74 1003.07 1003.28 1003.39 1003.32 1003.64
1014.72 1013.73 1014.39 1014.23 1013.68 1012.09 1010.81 1010.59 1010.54 1010.11 1009.38 1009.18 1008.57 1008.08 1007.52 1007.72 1007.33 1006.67 1006.07 1005.03 1003.63 1003.35 1003.42 1004.49 1005.53 1006.08 1006.80 1007.33 1007.37 1006.97 1006.42 1006.11 1005.68 1005.53 1005.23 1004.87 1004.40 1004.03 1003.77 1004.24 1004.69 1004.77 1004.33 1003.78 1003.77 1003.47 1003.32 1003.42 1003.49 1003.52 1003.49 1003.70 1003.85 1004.10
1015.32 1014.97 1014.70 1014.41 1014.03 1013.17 1010.97 1010.67 1010.81 1009.65 1008.83 1008.55 1007.75 1007.11 1006.83 1006.81 1006.78 1006.64 1005.96 1005.80 1005.39 1005.34 1005.45 1006.41 1007.02 1007.71 1007.95 1007.93 1007.89 1007.21 1006.50 1006.02 1005.69 1005.60 1005.35 1005.12 1004.71 1004.39 1004.16 1004.23 1004.20 1003.97 1003.78 1003.96 1004.10 1004.05 1003.89 1003.59 1003.24 1003.23 1003.48 1003.60 1003.65 1004.11
1015.13 1014.79 1014.47 1014.03 1013.79 1012.03 1010.77 1010.57 1010.93 1009.53 1008.97 1008.65 1008.01 1007.18 1006.94 1006.73 1006.89 1006.82 1006.77 1006.81 1006.79 1006.69 1007.52 1008.08 1008.54 1008.89 1008.58 1008.15 1007.62 1007.11 1006.54 1005.94 1005.50 1005.31 1005.27 1005.37 1005.05 1004.74 1004.52 1004.31 1004.15 1004.29 1004.19 1004.00 1003.91 1003.69 1003.47 1003.38 1003.45 1003.75 1003.89 1004.00 1003.83 1004.05
1014.37 1013.69 1013.45 1013.26 1012.25 1011.57 1011.09 1010.38 1009.69 1010.09 1009.46 1008.86 1008.49 1008.15 1007.30 1006.88 1006.88 1007.07 1007.40 1007.71 1007.86 1008.12 1008.54 1009.04 1008.85 1008.77 1008.43 1008.05 1007.52 1007.11 1006.81 1006.33 1005.92 1005.96 1005.85 1005.83 1005.68 1005.24 1004.79 1004.37 1003.95 1004.36 1004.64 1004.68 1004.49 1004.09 1003.68 1003.67 1003.57 1003.46 1003.59 1003.70 1003.96 1004.59
1013.91 1014.21 1013.29 1012.63 1011.76 1011.32 1010.72 1010.71 1010.39 1010.05 1009.41 1008.55 1008.43 1008.32 1008.19 1007.70 1007.70 1008.12 1008.18 1008.23 1008.88 1009.49 1009.45 1009.11 1008.87 1008.51 1008.34 1007.93 1007.33 1006.69 1006.85 1006.59 1006.46 1005.80 1005.70 1005.69 1005.50 1005.55 1005.25 1005.25 1005.50 1005.12 1005.26 1005.51 1004.89 1004.61 1004.53 1004.00 1004.36 1003.76 1003.51 1004.02 1004.16 1004.19
1014.51 1014.23 1012.78 1012.10 1011.45 1011.24 1010.80 1010.67 1009.97 1009.42 1008.83 1008.76 1008.44 1008.41 1008.77 1008.69 1008.52 1008.73 1009.48 1010.11 1009.70 1009.72 1009.82 1009.46 1009.09 1008.55 1008.19 1008.23 1008.05 1007.54 1007.18 1006.85 1006.54 1006.65 1006.52 1006.35 1006.10 1006.10 1006.11 1006.08 1005.79 1005.84 1005.65 1005.52 1005.02 1004.83 1004.97 1005.39 1004.95 1004.47 1004.44 1004.61 1004.39 1004.80
1014.98 1013.44 1012.22 1011.44 1010.91 1010.72 1010.20 1009.64 1009.52 1009.19 1008.90 1008.68 1008.60 1008.47 1008.67 1008.90 1009.13 1009.82 1010.74 1010.93 1011.03 1010.18 1009.70 1009.42 1009.01 1008.65 1008.34 1008.23 1008.05 1008.28 1007.80 1007.13 1007.20 1007.58 1007.35 1006.80 1006.64 1006.87 1006.94 1007.02 1006.88 1007.03 1006.83 1006.67 1006.71 1006.75 1006.11 1005.91 1005.59 1005.02 1004.87 1004.81 1005.16 1005.02
1014.03 1013.23 1012.22 1011.68 1010.76 1010.68 1010.20 1009.55 1009.13 1009.13 1009.29 1009.01 1008.99 1009.06 1009.06 1009.50 1010.03 1011.32 1012.69 1013.07 1012.48 1011.63 1011.19 1010.78 1010.26 1009.87 1009.69 1009.53 1009.18 1008.95 1008.95 1008.22 1007.68 1007.70 1008.08 1007.82 1007.73 1007.95 1007.92 1008.22 1008.18 1008.48 1008.14 1007.93 1007.79 1007.49 1007.26 1006.89 1006.34 1006.21 1005.75 1006.47 1006.41 1005.87
1013.05 1012.23 1012.03 1011.35 1011.12 1010.99 1010.85 1010.21 1010.20 1010.26 1010.13 1009.97 1010.25 1010.50 1010.59 1010.48 1011.68 1013.71 1015.11 1015.56 1014.74 1013.95 1012.60 1012.03 1011.49 1010.95 1010.60 1010.61 1010.33 1010.06 1009.86 1009.57 1009.37 1008.91 1009.21 1009.25 1009.31 1009.14 1008.86 1008.89 1009.17 1009.58 1009.59 1009.48 1009.31 1008.80 1008.33 1008.09 1007.79 1007.50 1006.99 1007.07 1007.07 1006.96
1012.27 1011.65 1010.92 1010.69 1010.62 1010.69 1010.63 1010.52 1010.50 1010.53 1010.85 1011.57 1012.00 1012.34 1012.43 1013.32 1014.93 1017.17 1017.61 1017.40 1016.53 1015.31 1013.72 1013.07 1012.56 1011.98 1011.61 1011.44 1011.29 1011.29 1011.07 1010.71 1010.48 1010.35 1009.62 1009.72 1010.26 1010.79 1010.73 1010.58 1010.99 1011.73 1010.91 1010.46 1010.35 1009.83 1009.79 1009.55 1008.85 1008.25 1007.69 1007.26 1007.13 1007.67
1011.61 1011.37 1011.05 1010.57 1010.59 1011.01 1011.25 1011.25 1011.67 1012.36 1012.96 1013.89 1014.31 1015.42 1016.95 1017.83 1018.92 1019.39 1018.93 1018.10 1016.67 1015.31 1014.68 1013.86 1013.51 1012.99 1012.69 1012.39 1012.10 1011.97 1011.98 1011.77 1011.36 1011.29 1010.59 1009.74 1010.31 1011.18 1011.83 1011.75 1011.94 1012.23 1011.74 1011.74 1011.71 1011.20 1011.27 1011.01 1010.28 1009.55 1008.95 1008.38 1007.85 1007.57
1010.96 1010.83 1010.55 1010.76 1010.83 1011.40 1012.21 1012.88 1013.77 1014.67 1014.89 1015.44 1016.38 1017.67 1019.03 1019.78 1019.75 1019.37 1019.04 1018.47 1017.66 1017.01 1015.27 1014.42 1014.24 1013.95 1013.45 1013.25 1013.09 1012.99 1012.70 1012.95 1012.89 1012.63 1012.26 1011.77 1011.55 1012.03 1012.49 1012.55 1012.38 1012.25 1012.06 1011.91 1012.15 1012.03 1011.93 1011.58 1011.12 1010.53 1009.90 1009.12 1008.61 1008.25
1010.65 1010.79 1010.69 1010.89 1011.41 1012.20 1013.27 1013.95 1015.13 1015.81 1015.90 1016.33 1017.49 1018.58 1019.18 1019.28 1019.22 1019.36 1018.81 1018.03 1016.83 1015.22 1014.97 1014.54 1014.49 1014.50 1014.40 1014.20 1014.06 1014.14 1013.83 1014.21 1014.51 1014.47 1014.13 1013.45 1013.26 1013.47 1013.56 1013.46 1013.18 1012.93 1012.74 1012.45 1011.98 1011.66 1011.82 1011.63 1010.80 1010.40 1010.17 1009.92 1009.46 1009.67
1010.69 1010.27 1010.29 1010.51 1011.81 1012.89 1013.98 1014.86 1015.58 1015.81 1016.25 1016.47 1016.97 1017.30 1017.69 1018.14 1018.35 1018.05 1017.35 1016.49 1015.47 1015.19 1015.52 1015.29 1015.14 1015.33 1015.44 1015.24 1015.22 1015.21 1015.24 1015.49 1016.15 1016.33 1016.53 1015.60 1015.29 1015.23 1015.16 1014.65 1014.01 1013.69 1013.39 1013.14 1012.63 1012.31 1012.41 1012.19 1011.78 1011.56 1011.32 1011.26 1011.11 1010.97
1010.13 1010.35 1010.43 1010.73 1011.87 1013.11 1014.16 1014.58 1015.21 1015.52 1015.53 1015.91 1016.20 1016.99 1017.79 1018.00 1017.50 1016.41 1016.43 1016.06 1015.88 1015.78 1016.23 1016.00 1015.98 1016.11 1016.45 1016.39 1016.43 1016.26 1016.84 1016.67 1017.02 1017.27 1017.41 1017.37 1017.17 1016.90 1016.20 1015.38 1015.13 1014.76 1014.24 1013.73 1013.18 1012.90 1012.96 1012.95 1012.81 1012.64 1012.36 1012.17 1012.10 1011.97
1009.81 1010.16 1010.48 1010.47 1011.15 1012.05 1012.91 1013.72 1013.78 1014.07 1014.55 1014.77 1015.05 1015.62 1016.13 1016.39 1016.18 1016.03 1016.29 1016.59 1016.81 1016.78 1016.64 1016.62 1016.90 1017.07 1017.35 1017.33 1017.29 1016.99 1016.79 1016.73 1017.77 1018.32 1018.45 1018.35 1018.28 1017.97 1017.15 1016.61 1016.28 1015.67 1015.31 1014.45 1014.00 1013.99 1013.65 1013.67 1013.57 1013.59 1013.45 1013.35 1013.08 1012.81
Wind_Speed
18 20 20 21 21 20 20 22 23 23 20 19 12 11 11 14 13 9 8 8 7 8 13 14 16 14 10 10 12 7 10 13 10 13 13 13 15 19 21 25 26 26 20 18 17 21 23 9 12 19 10 12 14 10
19 19 20 21 21 20 21 21 21 19 19 11 11 14 9 7 13 12 7 6 7 5 12 17 15 19 18 19 10 17 12 9 3 5 6 10 12 13 19 20 24 22 23 17 18 16 8 11 21 10 6 6 10 3
20 19 19 20 20 20 19 20 20 18 16 12 12 12 7 9 12 13 8 0 3 7 12 17 17 21 20 19 15 10 11 9 6 6 3 4 9 7 8 14 18 25 21 22 18 26 22 23 14 19 9 7 11 9
19 19 20 19 20 19 18 17 16 19 17 13 10 11 8 7 5 10 8 6 5 4 7 13 10 10 9 15 19 17 16 14 7 3 2 4 7 6 8 10 14 11 19 19 18 20 21 24 25 24 20 10 10 11
19 19 19 19 19 19 18 17 16 20 20 17 12 8 7 6 3 8 6 7 8 6 7 12 17 20 18 14 16 15 17 15 10 6 2 6 9 11 12 11 15 15 13 7 11 14 15 17 21 23 16 12 11 8
19 19 19 19 20 19 19 18 16 18 19 18 15 10 9 7 7 5 4 8 10 11 4 6 9 13 9 10 18 18 12 12 12 12 7 7 16 8 7 13 18 15 12 20 16 13 17 19 20 21 13 10 10 12
18 18 19 20 20 21 21 19 17 18 17 17 15 12 9 8 9 5 3 3 7 5 1 5 6 3 2 6 5 4 13 5 4 5 5 9 10 5 7 17 19 20 18 16 23 21 17 18 12 5 11 13 13 16
19 18 18 20 20 21 22 21 19 18 18 17 14 11 9 6 10 9 10 14 7 2 2 4 7 3 3 3 4 8 8 5 6 4 8 12 10 7 8 19 18 21 21 10 23 22 20 20 13 11 12 17 19 19
20 19 20 21 20 21 21 21 19 18 18 16 14 5 6 5 5 0 11 10 6 3 3 4 3 3 7 4 3 6 5 5 5 8 14 9 11 10 17 15 17 18 17 13 22 26 17 22 13 15 17 19 19 19
22 20 20 21 21 20 20 21 19 19 16 7 3 5 5 3 7 5 3 5 5 4 3 4 6 6 5 4 2 6 6 7 5 9 6 7 13 20 21 18 18 19 13 17 22 20 24 16 17 19 19 18 19 18
22 20 20 21 22 20 19 20 18 15 3 2 2 2 3 2 1 3 3 5 4 4 5 5 8 8 2 4 5 3 2 3 5 6 7 7 10 17 22 19 17 14 18 20 15 20 14 15 18 20 20 18 16 16
21 20 20 21 21 20 19 16 16 6 3 2 2 1 2 1 2 3 3 3 5 4 4 4 5 6 4 6 4 5 4 4 5 1 4 4 3 8 6 13 17 16 17 16 21 17 8 11 15 16 16 16 15 14
20 19 20 20 19 20 18 15 13 11 4 2 3 4 2 2 3 2 4 3 3 3 4 4 4 4 5 4 3 5 5 4 3 2 3 5 9 13 16 15 14 7 9 7 11 12 16 16 15 16 15 13 14 13
20 19 19 19 17 16 17 15 10 3 4 5 3 3 4 3 2 5 6 7 4 7 8 7 4 3 2 4 1 3 3 2 1 2 3 7 13 7 5 4 6 13 17 17 17 18 19 17 15 14 12 11 12 11
19 19 18 11 13 17 17 12 5 7 5 4 3 5 5 8 9 8 9 7 5 8 7 3 4 5 5 4 5 2 2 3 4 3 3 5 12 13 14 14 13 18 14 14 12 14 13 12 13 14 12 11 10 9
20 22 3 12 16 19 16 9 6 4 2 4 4 4 6 7 8 9 11 10 10 7 3 3 1 4 7 4 5 7 3 4 4 4 6 9 9 10 11 11 13 15 15 13 11 10 13 14 12 12 12 10 9 11
19 3 12 16 20 22 13 5 3 5 5 6 6 2 5 5 6 8 10 11 9 9 12 6 9 8 2 6 6 6 5 2 2 3 6 11 11 11 10 14 13 11 10 12 8 8 9 10 11 9 10 9 11 10
4 9 13 17 16 8 0 4 2 4 5 5 8 10 7 2 5 9 8 11 9 9 9 7 4 7 7 7 6 5 3 4 4 5 5 6 8 9 12 13 11 9 8 10 8 7 10 10 9 7 9 8 8 8
12 13 15 15 10 6 5 3 4 6 7 7 9 9 10 10 10 10 12 13 14 11 6 5 6 5 5 4 5 7 8 6 5 6 5 5 5 7 11 12 12 11 10 10 9 8 6 7 7 6 6 5 6 6
15 12 12 11 4 4 3 3 3 4 5 6 7 7 10 9 11 13 13 12 9 7 7 5 5 3 5 6 6 6 8 8 7 7 9 7 6 9 10 7 6 9 7 8 8 3 4 5 9 7 6 5 6 5
7 6 7 5 1 3 4 4 3 3 5 4 5 7 8 10 13 13 11 9 9 7 9 7 8 8 9 9 7 8 10 10 9 8 9 8 7 7 7 5 10 8 8 9 8 3 3 6 5 4 5 7 7 9
4 6 4 1 3 1 3 2 4 3 4 2 0 3 5 10 10 10 11 11 10 8 10 10 9 10 10 15 13 14 11 15 13 8 10 10 8 10 9 10 9 10 8 11 10 11 5 8 9 9 6 5 3 7
7 5 3 2 3 1 3 2 4 2 4 5 4 3 3 3 6 8 6 7 9 11 5 3 6 9 12 13 14 15 15 10 11 10 10 10 11 10 9 8 9 8 9 9 7 9 8 2 2 5 5 4 5 3
5 5 5 5 2 4 2 3 2 4 2 3 2 1 2 2 3 6 10 11 9 11 12 13 12 12 11 13 12 12 13 8 10 9 9 8 6 7 8 9 10 10 9 8 8 8 9 9 11 10 9 9 6 5
3 5 3 5 5 6 5 7 5 3 5 6 1 1 2 3 2 5 6 8 10 10 11 12 12 11 11 11 11 11 14 13 10 10 11 11 7 4 6 7 9 11 11 10 10 10 9 11 8 10 11 7 9 12
3 2 3 7 6 7 7 7 8 8 7 4 6 5 4 2 3 6 5 9 9 11 11 11 11 10 10 11 11 11 11 10 10 8 8 9 10 11 10 9 10 10 11 10 11 11 12 12 11 13 11 12 8 12
4 6 5 2 4 5 4 3 7 8 8 6 5 8 5 2 7 5 4 6 7 9 8 9 10 10 10 9 9 9 10 11 9 10 5 5 7 8 10 9 10 10 11 11 12 12 12 13 13 12 12 11 6 10
4 5 6 7 5 6 9 10 9 10 8 7 6 6 4 8 6 4 3 8 10 10 11 9 10 10 9 9 9 8 9 11 12 11 11 7 9 9 9 8 8 5 8 8 9 10 11 12 12 12 12 11 11 5
3 5 5 7 7 6 6 7 7 6 6 2 3 3 3 2 4 3 3 5 7 8 6 7 7 9 9 9 9 10 8 10 12 14 13 9 9 8 9 9 9 9 9 11 8 8 11 11 12 9 11 9 10 8
6 5 6 6 6 5 5 5 6 4 8 8 6 5 3 4 5 3 5 6 8 4 9 9 9 9 10 10 10 11 9 10 10 11 10 10 10 10 10 11 10 10 10 10 10 10 11 12 10 9 10 9 9 9
2 6 6 4 5 5 7 7 4 4 7 6 6 5 5 4 4 7 8 10 6 8 8 9 9 9 10 10 9 9 9 10 12 13 13 12 12 12 11 12 10 10 9 11 10 9 10 10 10 10 11 12 13 11
5 5 4 6 5 5 8 5 6 5 5 6 5 5 5 2 4 4 6 7 8 8 7 9 9 10 10 9 8 6 3 5 6 8 12 10 11 12 12 10 10 10 11 11 10 10 10 10 11 11 11 11 11 11
4 6 8 5 2 2 4 5 3 3 5 4 5 7 5 6 4 4 4 4 6 8 8 8 8 8 8 9 9 9 8 8 12 9 7 6 6 9 10 10 11 11 13 12 10 10 12 15 13 15 16 15 15 15
Wind_Direction
319 317 317 318 316 315 315 318 318 321 323 320 323 308 272 262 256 236 250 210 219 257 275 263 263 272 275 288 279 9 287 210 259 240 240 243 243 227 237 232 213 221 215 224 226 233 237 255 260 258 298 220 268 285
317 316 316 315 314 315 317 318 327 331 330 334 326 326 312 289 229 228 248 246 208 235 282 308 283 275 267 269 254 291 290 315 6 312 353 301 271 269 236 224 228 227 221 220 232 225 261 250 253 285 266 346 304 341
316 315 314 314 312 314 316 321 324 330 337 335 326 334 325 315 266 213 233 190 209 263 263 244 241 237 235 248 257 253 258 249 262 354 309 275 274 332 285 256 227 215 245 231 231 224 238 245 266 261 268 288 290 284
314 314 314 314 313 313 313 314 318 318 327 332 318 325 319 341 12 218 221 223 232 303 270 278 268 254 237 237 222 239 260 276 292 275 271 280 276 50 290 330 301 267 218 238 235 246 254 223 241 251 250 238 267 263
311 313 313 313 315 315 312 308 311 306 308 309 309 294 303 290 267 251 236 235 227 243 301 311 300 264 251 229 226 227 220 231 234 195 229 260 270 291 282 289 275 279 276 291 244 237 245 258 225 231 236 261 243 215
311 310 309 312 315 315 314 309 299 292 295 306 294 281 270 274 256 260 268 224 209 208 274 289 336 293 277 271 219 223 221 225 231 242 206 247 258 283 282 271 261 267 276 4 315 351 327 311 278 240 226 237 194 158
305 307 309 310 312 312 312 312 306 291 290 293 297 269 252 251 254 241 301 10 9 85 227 271 259 109 221 263 241 239 232 206 266 304 257 258 273 233 254 261 266 285 306 327 309 308 294 288 275 244 188 179 160 142
302 304 304 305 308 310 311 312 312 300 286 281 290 280 225 227 267 265 237 179 206 232 171 254 266 249 185 170 197 183 184 150 192 232 243 242 240 219 264 255 264 268 274 299 282 284 273 272 259 209 187 161 146 142
298 301 303 304 308 309 311 312 311 303 295 294 285 241 196 224 221 186 65 140 206 249 250 232 278 322 332 204 164 147 153 189 190 232 223 222 221 215 234 253 264 270 278 295 282 288 253 245 206 180 159 155 153 145
298 302 302 304 306 308 312 312 313 310 312 315 183 198 213 109 111 79 94 180 173 183 239 254 234 257 200 222 207 188 177 217 209 211 219 225 248 248 235 243 259 266 281 278 273 281 258 198 190 164 176 159 145 141
298 302 303 305 306 311 315 310 313 321 249 208 229 260 39 94 176 207 224 199 164 225 208 227 224 237 230 205 201 236 168 245 233 179 219 210 230 226 231 249 258 261 266 264 259 266 229 162 170 167 154 143 136 135
304 306 305 305 307 312 310 309 319 304 311 40 335 301 269 241 243 273 225 239 225 254 195 218 202 198 231 210 191 175 238 209 243 167 233 247 236 263 242 260 251 248 253 267 246 237 162 143 125 117 117 114 116 123
309 311 309 306 310 308 303 317 311 279 227 214 229 231 190 150 297 271 294 238 250 232 224 232 230 225 184 219 177 204 221 232 307 237 258 267 291 287 259 235 235 224 251 198 115 111 93 91 97 112 117 118 112 105
314 313 310 309 309 302 313 318 320 259 253 238 247 310 338 330 270 236 262 280 223 225 232 217 207 265 164 153 151 233 222 191 273 270 292 284 289 69 98 125 67 148 86 78 72 89 99 97 97 109 117 117 105 99
316 313 312 309 331 325 318 317 296 219 240 315 351 340 353 343 309 322 309 289 236 241 261 275 189 172 152 218 180 196 147 41 21 309 265 21 12 43 50 51 39 57 79 77 80 84 94 101 99 89 83 86 88 95
320 300 332 351 338 325 318 281 209 244 298 39 13 325 310 299 326 336 340 340 322 307 296 222 339 50 47 37 14 28 28 23 344 336 354 78 74 66 64 57 43 43 50 58 64 78 83 81 85 88 86 85 87 89
307 7 6 352 334 310 283 272 338 1 356 339 358 331 218 258 290 313 337 329 316 5 29 11 29 25 35 38 16 357 351 303 221 357 12 14 46 134 117 96 87 66 64 53 55 75 90 93 89 86 90 91 84 87
252 2 14 339 330 279 293 350 37 343 2 11 358 7 17 165 2 29 17 4 5 9 42 48 32 10 31 11 17 10 349 351 40 56 25 14 35 72 97 107 107 120 124 121 123 109 105 101 95 94 104 109 105 109
311 311 313 310 323 303 334 44 347 339 28 24 346 15 40 43 53 39 43 41 45 41 38 18 31 12 14 358 3 356 5 13 52 77 67 32 7 70 87 108 108 107 105 103 100 91 76 56 85 102 110 79 81 100
291 280 281 289 255 284 306 72 242 280 18 347 7 20 46 35 62 50 46 50 49 47 39 33 31 354 356 2 3 16 20 17 54 60 68 45 47 56 67 73 104 134 134 142 124 57 82 82 88 65 65 71 105 105
222 24 313 252 266 312 334 318 61 25 319 329 43 1 14 57 51 50 58 48 54 43 50 42 45 51 56 45 31 44 37 24 46 64 63 63 53 54 55 71 60 46 50 35 352 23 82 71 62 73 129 86 100 89
30 315 282 146 287 289 274 70 321 341 276 357 87 80 26 33 58 53 42 47 46 46 34 44 44 58 49 39 25 32 62 58 34 43 60 53 75 59 36 39 27 32 24 37 1 44 31 47 13 10 50 102 226 83
278 216 247 259 278 86 252 258 289 350 319 353 302 77 64 24 47 55 61 19 39 66 35 11 16 39 54 58 41 28 27 42 48 38 33 35 45 57 60 50 34 43 28 36 15 35 53 125 330 337 49 344 40 117
158 303 325 322 317 293 254 255 199 266 253 247 299 53 42 73 53 77 52 41 29 16 26 25 25 20 31 28 35 30 359 31 56 43 21 25 29 39 34 38 35 33 18 34 37 345 357 18 354 7 21 23 356 348
359 357 352 317 330 342 304 332 312 327 317 298 286 268 176 156 219 70 60 20 9 19 22 14 12 21 20 13 14 22 16 0 12 42 18 8 33 74 61 50 42 26 6 9 3 359 360 354 5 348 348 17 349 346
47 63 31 345 357 351 346 338 357 342 326 306 20 357 322 274 81 66 49 2 2 352 5 10 3 5 15 15 9 9 3 12 359 20 33 27 19 8 12 13 15 21 355 14 356 352 357 349 337 333 339 359 350 325
33 4 6 32 357 7 352 9 350 354 354 12 1 346 316 15 58 54 350 2 323 314 327 13 359 3 4 10 7 8 3 353 21 343 333 73 62 35 6 19 32 7 334 15 1 353 -0 342 336 338 331 329 357 54
353 352 334 14 11 26 14 6 21 7 7 12 350 40 46 11 34 349 316 319 333 8 358 358 7 358 7 360 5 12 13 360 5 4 339 13 52 49 22 9 39 328 349 29 8 359 7 340 334 336 331 330 319 346
325 341 331 8 355 59 33 21 40 18 339 32 45 68 89 148 207 217 263 312 310 298 319 356 10 356 3 3 15 360 25 14 5 359 359 356 8 20 15 6 1 357 1 347 65 43 25 345 322 331 323 323 321 359
14 356 356 349 16 35 53 51 103 64 49 80 102 113 130 192 206 226 265 273 281 339 10 4 12 14 2 0 4 4 18 26 21 6 354 352 13 13 3 357 351 352 352 345 343 349 34 335 350 357 357 349 354 4
14 311 327 31 50 81 120 119 123 153 161 144 156 146 138 161 199 224 244 255 307 22 19 355 9 22 4 3 11 5 4 38 25 22 7 353 7 5 350 334 346 347 347 344 340 350 7 349 354 3 2 358 1 348
350 13 343 1 52 115 131 195 167 188 182 187 172 165 155 175 254 164 32 359 12 14 36 8 11 18 21 2 14 33 291 45 29 19 14 5 357 348 332 351 356 344 348 334 341 352 5 -0 351 353 347 346 347 341
2 24 1 7 102 167 177 216 196 211 188 227 192 185 190 175 74 85 123 68 33 8 3 19 23 15 38 8 19 353 349 55 91 103 111 72 23 350 332 7 356 359 348 335 5 345 353 6 359 4 4 358 353 356